LIMELIML

Guest
Details From LIME - Bergamo Orio Al Serio
To LIML - Milano Linate
Flight Number -
Tags Generated
Created
Modified
Stats Distance 22 nm / 40 km
Max Altitude 0 ft / 0 m
Waypoints 2
Social Downloads 1
Likes 0
Share VATSIM

Download

Looking for another format? Having issues loading an existing format? Contact us
Advertisement - Login to hide

Notes

Generated

Route

LIME LIML

ID Type Via Altitude Latitude Longitude Leg Dist Tot Dist Heading (true) Name
O LIME APT - 0 ft / 0 m 45.67113˚ 9.68904˚ - 0 nm - -
O LIML APT - 0 ft / 0 m 45.45804˚ 9.26826˚ 21 nm 21 nm 234° / 234° -

Altitude Profile

Advertisement - Login to hide

LIME

Details ICAO LIME (BGY)
Name Bergamo Orio Al Serio
Region Italy
Timezone Europe/Rome (UTC+2.0)
Stats Elevation 779 ft / 237 m (AMSL)
Location 45.672004° 9.706892°
Runways 2
Magnetic Variation 2.655° E

METAR

LIME 280120Z 02007KT 9999 SCT070 19/12 Q1018 NOSIG

Decode

TAF

TAF LIME 272300Z 2800/2824 VRB05KT 9999 BKN050 TEMPO 2815/2824 TSRA

Decode

Departure Runways

ID Width Length Bearing (true) Bearing (mag) Surface Threshold Offset Overrun Length
10 148 ft / 45 m 9,897 ft / 3,017 m 104.89° 102.23° Asphalt 312 ft / 95 m 0 ft / 0 m
12 59 ft / 18 m 2,665 ft / 812 m 121.47° 118.81° Asphalt 197 ft / 60 m 0 ft / 0 m
28 148 ft / 45 m 9,897 ft / 3,017 m 284.91° 282.25° Asphalt 712 ft / 217 m 0 ft / 0 m
30 59 ft / 18 m 2,665 ft / 812 m 301.48° 298.82° Asphalt 312 ft / 95 m 0 ft / 0 m

LIML

Details ICAO LIML (LIN)
Name Milano Linate
Region Italy
Timezone Europe/Rome (UTC+2.0)
Stats Elevation 353 ft / 108 m (AMSL)
Location 45.450302° 9.272801°
Runways 2
Magnetic Variation 2.553° E

METAR

LIML 280120Z 03007KT 9999 FEW020CB SCT050 20/14 Q1017 NOSIG

Decode

TAF

TAF LIML 272300Z 2800/2824 VRB05KT 9999 BKN050 TEMPO 2815/2824 TSRA

Decode

Destination Runways

ID Width Length Bearing (true) Bearing (mag) Surface Threshold Offset Overrun Length
17 72 ft / 22 m 1,975 ft / 602 m 175.64° 173.09° Asphalt 200 ft / 61 m 0 ft / 0 m
18 197 ft / 60 m 8,017 ft / 2,443 m 175.67° 173.12° Asphalt 0 ft / 0 m 190 ft / 58 m
35 72 ft / 22 m 1,975 ft / 602 m 355.64° 353.09° Asphalt 200 ft / 61 m 0 ft / 0 m
36 197 ft / 60 m 8,017 ft / 2,443 m 355.68° 353.13° Asphalt 0 ft / 0 m 980 ft / 299 m

Approach Navaids

Runway Type Ident Frequency Range Bearing (true) Bearing (mag) Slope Elevation
36 Localiser ILNT 109.55 MHz 18 nm / 33 km 355.68° 353.12° - 353 ft / 108 m (AMSL)
36 Glidescope ILNT 109.55 MHz 10 nm / 19 km 355.68° 353.12° 3.00° 352 ft / 107 m (AMSL)
36 DME ILNT 109.55 MHz 25 nm / 46 km - - - 352 ft / 107 m (AMSL)

Popular Alternatives